Weather Roundup
Issued by NWS Chicago, IL

Home | Current Version | Previous Version | Graphics & Text | Print | Product List | Glossary On
Versions: 1 2 3 4 5 6 7 8 9 10 11 12 13 14 15 16 17 18 19 20 21 22 23 24 25 26 27 28 29 30 31 32 33 34 35 36 37 38 39 40 41 42 43 44 45 46 47 48 49 50
000
NZUS59 KLOT 030203
HRRLOT

CHICAGO AREA WEATHER ROUNDUP
NATIONAL WEATHER SERVICE CHICAGO/ROMEOVILLE IL
900 PM CDT MON MAY 02 2016

NOTE: "FAIR" INDICATES FEW OR NO CLOUDS BELOW 12,000 FEET WITH NO
SIGNIFICANT WEATHER AND/OR OBSTRUCTIONS TO VISIBILITY.

* THESE STATIONS ARE NOT UNDER NWS QUALITY CONTROL. THEY ALSO MAY NOT
  REPORT WEATHER SUCH AS PRECIPITATION OR FOG.

ILZ005-006-012>014-019>023-030300-
NORTHEAST ILLINOIS

CITY           SKY/WX    TMP DP  RH WIND       PRES   REMARKS
OHARE          PTCLDY    50  33  52 N6        30.01S
MIDWAY         PTCLDY    51  32  48 N6        30.02S
AURORA         CLEAR     49  35  58 NE5       30.02S
LANSING*       CLOUDY    48  36  64 NE6       30.02S
WAUKEGAN       PTCLDY    43  37  79 CALM      30.02S
DUPAGE AIRPORT CLEAR     48  30  49 N5        30.01S
WHEELING       CLEAR     46  34  62 VRB3      30.03F
MORRIS*        PTCLDY    50  40  69 CALM      30.01R
$$

WIZ051-052-058>065-066-070>072-030300-
SOUTHEAST WISCONSIN

CITY           SKY/WX    TMP DP  RH WIND       PRES   REMARKS
MILWAUKEE      PTCLDY    47  33  58 CALM      30.03S
KENOSHA*       CLEAR     46  33  60 CALM      30.03S
RACINE*        CLEAR     46  34  62 NW3       30.04S
BURLINGTON     CLEAR     47  33  58 CALM      30.03S
WAUKESHA       CLEAR     48  30  49 E9        30.03S
$$

INZ001>003-010>013-019-020-030300-
NORTHWEST INDIANA

CITY           SKY/WX    TMP DP  RH WIND       PRES   REMARKS
GARY*          MOCLDY    48  43  81 N5        30.03S
MICHIGAN CITY* NOT AVBL
RENSSELAER*    NOT AVBL
VALPARAISO     CLOUDY    47  38  71 N5        30.01S
$$

LMZ740>746-030300-
SOUTHERN LAKE MICHIGAN

STATION/POSITION TIME  SKY/WX   TEMP WIND        PRES    VSBY
                                AIR  DIR/SP/G
                 (UTC)          (F)  (DEG/KT/KT) (MB)    (MI)
HARRISON CRIB    0100            46  360/  5/  6   N/A
BURNHAM HARBOR   0200            46   10/  5/  8   N/A
CALUMET HARBOR   0100            46              1016.2S
BURNS HARBOR     0100            47   40/  7/  9 1016.9F
MICHIGAN CITY    0100            46   20/  5/  5   N/A
$$

ABBREVIATIONS USED IN REMARKS
   TC - TEMPERATURE IN CELSIUS
  WCI - WIND CHILL INDEX
   HX - HEAT INDEX
  VSB - VISIBILITY
$$




USA.gov is the U.S. government's official web portal to all federal, state and local government web resources and services.